Flag for U.S.A. Weather past 2 weeks in Stillwater, Minnesota, U.S.A.

Now
64 °F

Clear.


Feels Like: 64 °F
Forecast: 57 / 80 °F
Wind: 6 mph from Southeast

Location: St. Paul Downtown Holman Field

Current Time: Sep 3, 2014 at 12:42:41 AM

Latest Report: Sep 2, 2014 at 11:53 PM


Visibility: 10 mi

Pressure: 29.87 "Hg

Humidity: 84%

Dew point: 59 °F

Location of StillwaterLocation

Historic Weather in Stillwater — Graph

°F

Stillwater temperature yesterday

Maximum temperature yesterday: 77 °F (at 2:53 PM)
Minimum temperature yesterday: 61 °F (at 1:53 AM)
Average temperature yesterday: 68 °F

Past Weeks' High & Low Weather Summary

 TemperatureHumidityPressure
High86 °F (Aug 24, 2:53 PM)100% (Aug 19, 10:53 PM)30.24 "Hg (Aug 19, 10:53 PM)
Low56 °F (Aug 26, 6:53 AM)39% (Sep 2, 1:53 PM)29.59 "Hg (Aug 31, 7:53 PM)
Average71 °F78%29.88 "Hg
* Reported Aug 18 11:53 PM — Sep 2 11:53 PM, Stillwater, Weather by CustomWeather, © 2014

Note: Actual official high and low records may vary slightly from our data, if they occured in-between our weather recording intervals... More about our weather records

Advertising

Stillwater weather history for previous 24 hours

 ConditionsComfort  
Time TempWeatherWind HumidityBarometerVisibility
11:53 PM
Sep 2
64 °FClear.6 mph84%29.87 "Hg10 mi
10:53 PM66 °FClear.3 mph75%29.86 "Hg10 mi
9:53 PM66 °FClear.3 mph75%29.86 "Hg10 mi
8:53 PM66 °FClear.6 mph73%29.86 "Hg10 mi
7:53 PM71 °FSunny.6 mph53%29.85 "Hg10 mi
6:53 PM74 °FSunny.5 mph48%29.85 "Hg10 mi
5:53 PM76 °FSunny.12 mph40%29.86 "Hg10 mi
4:53 PM77 °FSunny.9 mph39%29.86 "Hg10 mi
3:53 PM76 °FSunny.13 mph40%29.86 "Hg10 mi
2:53 PM77 °FSunny.8 mph39%29.87 "Hg10 mi
1:53 PM76 °FSunny.10 mph39%29.88 "Hg10 mi
12:53 PM75 °FSunny.12 mph47%29.88 "Hg10 mi
11:53 AM73 °FPassing clouds.6 mph55%29.88 "Hg10 mi
10:53 AM72 °FSunny.No wind57%29.88 "Hg10 mi
9:53 AM68 °FSunny.6 mph70%29.88 "Hg10 mi
8:53 AM65 °FSunny.6 mph81%29.87 "Hg10 mi
7:53 AM62 °FSunny.No wind90%29.86 "Hg10 mi
6:53 AM62 °FPassing clouds.No wind90%29.85 "Hg10 mi
5:53 AM63 °FPassing clouds.No wind87%29.83 "Hg10 mi
4:53 AM63 °FPassing clouds.No wind87%29.81 "Hg10 mi
3:53 AM64 °FClear.No wind87%29.81 "Hg10 mi
2:53 AM63 °FPassing clouds.No wind90%29.80 "Hg10 mi
1:53 AM61 °FClear.5 mph93%29.80 "Hg10 mi
12:53 AM62 °FPassing clouds.3 mph93%29.80 "Hg10 mi
Weather by CustomWeather, © 2014

See weather overviewHow to use our weather pages